La Porte, IN

7:06 PM CST on February 27, 2017 (GMT -0600)
La Porte Municipal

Weather History for KPPO - May, 2013

Change the Weather History Date:

Thursday, May 16, 2013

  Actual Average (KSBN) Record (KSBN)
Temperature  
Mean Temperature 65 °F -  
Max Temperature 81 °F 70 °F 89 °F (1962)
Min Temperature 49 °F 49 °F 30 °F (1904)
Growing Degree Days 15 (Base 50)    
Moisture  
Dew Point 43 °F    
Average Humidity 50    
Maximum Humidity 95    
Minimum Humidity 21    
Precipitation  
Precipitation 0.00 in - - ()
Sea Level Pressure  
Sea Level Pressure 29.93 in    
Wind  
Wind Speed 3 mph (NNE)    
Max Wind Speed 14 mph    
Max Gust Speed 17 mph    
Visibility 10 miles    
Events      
Averages and records for this station are not official NWS values.
T = Trace of Precipitation, MM = Missing Value Source: NWS Daily Summary

Daily Weather History Graph

Daily Weather History Graph

Search for Another Location

Airport or City:

Trip Planner

Search our weather history database for the weather conditions in past years. The results will help you decide how hot, cold, wet, or windy it might be!

Date:

Astronomy

May. 16, 2013 Rise Set
Actual Time 5:26 AM CDT 8:00 PM CDT
Civil Twilight 4:54 AM CDT 8:32 PM CDT
Nautical Twilight 4:15 AM CDT 9:12 PM CDT
Astronomical Twilight 3:30 AM CDT 9:57 PM CDT
Moon 11:00 AM CDT (5/16) 12:20 AM CDT (5/16)
Length of Visible Light 15h 37m
Length of Day
14h 34m
Waxing Crescent, 36% of the Moon is Illuminated
May 16
Waxing Crescent
May 17
First Quarter
May 24
Full
May 31
Last Quarter
Jun 8
New

Hourly Weather History & Observations

Time (CDT) Temp. Dew Point Humidity Pressure Visibility Wind Dir Wind Speed Gust Speed Precip Events Conditions
12:15 AM 57.7 °F 50.4 °F 76% 29.84 in 10.0 mi Calm Calm - N/A   Clear
12:35 AM 55.8 °F 50.7 °F 83% 29.85 in 10.0 mi Calm Calm - N/A   Clear
12:55 AM 55.4 °F 50.2 °F 83% 29.85 in 10.0 mi Calm Calm - N/A   Clear
1:15 AM 53.6 °F 48.9 °F 84% 29.86 in 10.0 mi Calm Calm - N/A   Clear
1:35 AM 52.7 °F 48.9 °F 87% 29.86 in 10.0 mi NNW 4.6 mph - N/A   Clear
1:55 AM 52.5 °F 49.5 °F 89% 29.87 in 10.0 mi Calm Calm - N/A   Clear
2:15 AM 52.3 °F 48.9 °F 88% 29.88 in 10.0 mi Calm Calm - N/A   Clear
2:35 AM 52.7 °F 49.8 °F 90% 29.88 in 10.0 mi Calm Calm - N/A   Clear
2:55 AM 50.9 °F 48.4 °F 91% 29.88 in 10.0 mi Calm Calm - N/A   Scattered Clouds
3:15 AM 51.8 °F 49.3 °F 91% 29.88 in 10.0 mi Calm Calm - N/A   Scattered Clouds
3:35 AM 52.3 °F 50.4 °F 93% 29.88 in 10.0 mi North 3.5 mph - N/A   Scattered Clouds
3:55 AM 50.4 °F 48.0 °F 92% 29.88 in 10.0 mi Calm Calm - N/A   Scattered Clouds
4:15 AM 51.1 °F 49.1 °F 93% 29.88 in 10.0 mi Calm Calm - N/A   Clear
4:35 AM 49.6 °F 46.8 °F 90% 29.88 in 10.0 mi Calm Calm - N/A   Clear
4:55 AM 49.8 °F 47.8 °F 93% 29.88 in 10.0 mi Calm Calm - N/A   Clear
5:15 AM 49.3 °F 47.5 °F 94% 29.88 in 10.0 mi Calm Calm - N/A   Clear
5:35 AM 49.1 °F 47.7 °F 95% 29.89 in 10.0 mi NW 3.5 mph - N/A   Clear
5:55 AM 51.4 °F 50.2 °F 95% 29.90 in 10.0 mi Calm Calm - N/A   Clear
6:15 AM 52.7 °F 49.1 °F 88% 29.90 in 10.0 mi Calm Calm - N/A   Clear
6:35 AM 55.8 °F 50.9 °F 84% 29.91 in 10.0 mi Calm Calm - N/A   Clear
6:55 AM 59.4 °F 47.8 °F 66% 29.92 in 10.0 mi NNW 3.5 mph - N/A   Clear
7:15 AM 60.8 °F 46.6 °F 59% 29.92 in 10.0 mi North 3.5 mph - N/A   Clear
7:35 AM 63.0 °F 46.0 °F 54% 29.94 in 10.0 mi North 3.5 mph - N/A   Clear
7:55 AM 64.9 °F 43.5 °F 46% 29.94 in 10.0 mi North 3.5 mph - N/A   Clear
8:15 AM 68.2 °F 40.8 °F 37% 29.94 in 10.0 mi North 3.5 mph - N/A   Clear
8:35 AM 70.3 °F 38.8 °F 32% 29.94 in 10.0 mi North 3.5 mph - N/A   Clear
8:55 AM 71.2 °F 37.8 °F 29% 29.94 in 10.0 mi North 5.8 mph - N/A   Clear
9:15 AM 70.2 °F 39.9 °F 33% 29.95 in 10.0 mi North 4.6 mph - N/A   Clear
9:35 AM 70.7 °F 39.6 °F 32% 29.96 in 10.0 mi North 3.5 mph - N/A   Clear
9:55 AM 72.5 °F 38.8 °F 29% 29.96 in 10.0 mi ENE 3.5 mph - N/A   Clear
10:15 AM 74.7 °F 39.7 °F 28% 29.96 in 10.0 mi NE 8.1 mph - N/A   Clear
10:35 AM 75.0 °F 40.6 °F 29% 29.96 in 10.0 mi NE 5.8 mph - N/A   Clear
10:55 AM 74.8 °F 40.3 °F 29% 29.96 in 10.0 mi ENE 5.8 mph - N/A   Clear
11:15 AM 75.6 °F 40.8 °F 29% 29.95 in 4.0 mi ENE 6.9 mph - N/A   Haze
11:35 AM 75.7 °F 41.0 °F 29% 29.95 in 10.0 mi East 6.9 mph - N/A   Clear
11:55 AM 77.0 °F 41.4 °F 28% 29.95 in 10.0 mi NNW 4.6 mph - N/A   Clear
12:15 PM 77.0 °F 39.0 °F 25% 29.95 in 10.0 mi Calm Calm - N/A   Clear
12:35 PM 78.1 °F 41.4 °F 27% 29.94 in 10.0 mi North 4.6 mph - N/A   Clear
12:55 PM 78.1 °F 41.9 °F 27% 29.94 in 10.0 mi NW 4.6 mph - N/A   Clear
1:15 PM 78.6 °F 39.6 °F 25% 29.94 in 10.0 mi NE 5.8 mph - N/A   Clear
1:35 PM 79.3 °F 38.5 °F 23% 29.94 in 10.0 mi NW 4.6 mph - N/A   Clear
1:55 PM 79.7 °F 37.9 °F 22% 29.94 in 10.0 mi North 5.8 mph - N/A   Clear
2:15 PM 80.6 °F 38.5 °F 22% 29.94 in 10.0 mi NNE 4.6 mph - N/A   Clear
2:35 PM 79.7 °F 35.8 °F 21% 29.93 in 10.0 mi NW 3.5 mph - N/A   Clear
2:55 PM 80.6 °F 41.0 °F 24% 29.92 in 10.0 mi North 6.9 mph - N/A   Clear
3:15 PM 80.6 °F 41.5 °F 25% 29.92 in 10.0 mi NW 5.8 mph - N/A   Clear
3:35 PM 81.3 °F 41.0 °F 24% 29.91 in 10.0 mi NNW 8.1 mph - N/A   Clear
3:55 PM 81.3 °F 39.2 °F 22% 29.91 in 10.0 mi NE 9.2 mph - N/A   Clear
4:15 PM 81.0 °F 39.6 °F 23% 29.91 in 10.0 mi North 8.1 mph - N/A   Clear
4:35 PM 81.0 °F 40.1 °F 23% 29.91 in 10.0 mi North 11.5 mph - N/A   Clear
5:15 PM 79.0 °F 38.8 °F 24% 29.91 in 10.0 mi North 12.7 mph 17.3 mph N/A   Clear
5:35 PM 78.3 °F 38.5 °F 24% 29.91 in 10.0 mi North 13.8 mph - N/A   Clear
5:55 PM 77.4 °F 36.5 °F 23% 29.91 in 10.0 mi NNE 13.8 mph - N/A   Clear
6:15 PM 76.6 °F 37.9 °F 25% 29.92 in 10.0 mi North 12.7 mph - N/A   Clear
6:35 PM 75.7 °F 37.4 °F 25% 29.93 in 10.0 mi NNE 9.2 mph - N/A   Clear
6:55 PM 74.5 °F 40.8 °F 30% 29.93 in 10.0 mi NNE 12.7 mph - N/A   Clear
7:15 PM 72.1 °F 43.2 °F 35% 29.94 in 10.0 mi NNE 8.1 mph - N/A   Clear
7:35 PM 69.8 °F 43.5 °F 39% 29.94 in 10.0 mi NNE 5.8 mph - N/A   Clear
7:55 PM 68.4 °F 43.2 °F 40% 29.95 in 10.0 mi NNE 3.5 mph - N/A   Clear
8:15 PM 68.0 °F 42.6 °F 40% 29.95 in 10.0 mi NE 3.5 mph - N/A   Clear
8:35 PM 66.7 °F 43.0 °F 42% 29.96 in 10.0 mi NE 4.6 mph - N/A   Clear
8:55 PM 65.5 °F 42.8 °F 44% 29.96 in 10.0 mi NE 5.8 mph - N/A   Clear
9:15 PM 63.7 °F 43.7 °F 48% 29.96 in 10.0 mi NE 4.6 mph - N/A   Clear
9:35 PM 63.9 °F 41.9 °F 45% 29.97 in 10.0 mi Calm Calm - N/A   Clear
9:55 PM 64.4 °F 41.9 °F 44% 29.98 in 10.0 mi ENE 4.6 mph - N/A   Scattered Clouds
10:15 PM 60.4 °F 42.3 °F 51% 29.98 in 10.0 mi NE 3.5 mph - N/A   Scattered Clouds
10:35 PM 62.4 °F 42.3 °F 48% 29.99 in 10.0 mi ENE 4.6 mph - N/A   Scattered Clouds
10:55 PM 61.2 °F 42.6 °F 51% 29.99 in 10.0 mi Calm Calm - N/A   Scattered Clouds
11:15 PM 57.0 °F 44.1 °F 62% 29.99 in 10.0 mi Calm Calm - N/A   Scattered Clouds
11:35 PM 56.8 °F 43.9 °F 62% 29.99 in 10.0 mi Calm Calm - N/A   Scattered Clouds
11:55 PM 56.3 °F 43.0 °F 61% 29.99 in 10.0 mi Calm Calm - N/A   Clear